Погода в Круговце

Беларусь     52°46′50″N   30°18′53″E
темп.,
°C
ветер,
м/с
пор.,
м/с
влажн.,
%
обл.,
%
осадки,
мм/ч
давл.,
гПа
погр.,
м
24 июля, сб
сб2400:00+17зсз38727 0.0 1014170
03:00+17з367295 0.0 1014144
06:00+17зсз378075 0.2 1014182
09:00+19сз457593 0.3 1015406
12:00+22сз34582 0.0 1015793
15:00+24сз45497 0.0 10151122
18:00+24сз34498 0.0 10161385
21:00+21сз2359100 0.0 101648
25 июля, вс
вс2500:00+20сз115996 0.0 101711
03:00+19ю1163100 0.0 101811
06:00+19юз116795 0.0 101911
09:00+22вюв116194 0.0 1019297
12:00+23ю2260100 0.0 1020439
15:00+27вюв114320 0.0 10201265
18:00+23ююв355944 0.1 1020209
21:00+20в236864 0.1 102155
26 июля, пн
пн2600:00+17вюв33792 0.0 102226
03:00+16ююв22875 0.0 102212
06:00+16вюв23885 0.0 102241
09:00+22юв34645 0.0 1022448
12:00+27ююв34475 0.0 10221686
15:00+24ююз375198 0.0 1021281
18:00+26ю454447 0.0 10211385
21:00+21юв476516 0.0 1021109
27 июля, вт
вт2700:00+19юв37740 0.0 1022125
03:00+17ююв35808 0.0 102285
06:00+17юв37825 0.0 1022149
09:00+23ююв58525 0.0 1021428
12:00+28ююв68395 0.0 10201747
15:00+30ююв773463 0.0 10192673
18:00+28ююв683892 0.0 10181170
21:00+24юв5115345 0.0 1017269
28 июля, ср
ср2800:00+21юв6136296 0.1 1017287
03:00+18ююв61683100 1.4 1016359
06:00+18ююв61676100 0.1 1014352
09:00+23ю7135599 0.3 1013623
12:00+26ююз71162100 1.3 1012946
15:00+32юз71040100 1.3 10092519
18:00+21зсз81496100 14.9 1008536
21:00+19ююз4988100 21.3 1008184